Westerly, RI

6:53 PM EST on December 09, 2016 (GMT -0500)
Westerly State

Weather History for KWST - October, 2013

Change the Weather History Date:

Sunday, October 27, 2013

  Actual Average (KGON) Record (KGON)
Temperature  
Mean Temperature 46 °F -  
Max Temperature 59 °F 57 °F 75 °F (1964)
Min Temperature 34 °F 40 °F 28 °F (1976)
Degree Days  
Heating Degree Days 19    
Moisture  
Dew Point 33 °F    
Average Humidity 57    
Maximum Humidity 93    
Minimum Humidity 34    
Precipitation  
Precipitation 0.00 in - - ()
Sea Level Pressure  
Sea Level Pressure 29.94 in    
Wind  
Wind Speed 7 mph (West)    
Max Wind Speed 16 mph    
Max Gust Speed 29 mph    
Visibility 10 miles    
Events Rain    
Averages and records for this station are not official NWS values.
T = Trace of Precipitation, MM = Missing Value Source: NWS Daily Summary

Daily Weather History Graph

Daily Weather History Graph

Search for Another Location

Airport or City:

Trip Planner

Search our weather history database for the weather conditions in past years. The results will help you decide how hot, cold, wet, or windy it might be!

Date:

Astronomy

Oct. 27, 2013 Rise Set
Actual Time 7:12 AM EDT 5:48 PM EDT
Civil Twilight 6:44 AM EDT 6:16 PM EDT
Nautical Twilight 6:12 AM EDT 6:49 PM EDT
Astronomical Twilight 5:40 AM EDT 7:21 PM EDT
Moon 12:03 AM EDT (10/27) 2:00 PM EDT (10/27)
Length of Visible Light 11h 32m
Length of Day
10h 35m
Last Quarter, 44% of the Moon is Illuminated
Oct 27
Last Quarter
Nov 3
New
Nov 10
First Quarter
Nov 17
Full
Nov 25
Last Quarter

Hourly Weather History & Observations

Time (EDT) Temp. Windchill Dew Point Humidity Pressure Visibility Wind Dir Wind Speed Gust Speed Precip Events Conditions
12:53 AM 54.0 °F - 33.1 °F 45% 29.89 in 10.0 mi SW 16.1 mph 28.8 mph N/A   Overcast
1:53 AM 54.0 °F - 34.0 °F 47% 29.88 in 10.0 mi West 10.4 mph 19.6 mph N/A   Overcast
2:53 AM 51.1 °F - 32.0 °F 48% 29.86 in 10.0 mi Variable 4.6 mph - N/A   Mostly Cloudy
3:53 AM 51.1 °F - 33.1 °F 50% 29.85 in 10.0 mi West 5.8 mph - 0.00 in Rain Light Rain
4:53 AM 46.0 °F - 39.0 °F 76% 29.86 in 7.0 mi Calm Calm - 0.00 in Rain Light Rain
5:53 AM 45.0 °F 43.5 °F 39.9 °F 82% 29.87 in 10.0 mi Variable 3.5 mph - 0.00 in Rain Light Rain
6:53 AM 45.0 °F - 39.0 °F 80% 29.87 in 10.0 mi Calm Calm - 0.00 in   Overcast
7:53 AM 41.0 °F - 39.0 °F 93% 29.89 in 10.0 mi Calm Calm - N/A   Clear
8:53 AM 48.0 °F - 36.0 °F 63% 29.91 in 10.0 mi Variable 3.5 mph - N/A   Clear
9:53 AM 51.1 °F - 34.0 °F 52% 29.91 in 10.0 mi West 8.1 mph - N/A   Clear
10:53 AM 53.1 °F - 33.1 °F 47% 29.92 in 10.0 mi Variable 6.9 mph - N/A   Clear
11:53 AM 54.0 °F - 32.0 °F 43% 29.92 in 10.0 mi West 9.2 mph - N/A   Clear
12:53 PM 55.9 °F - 30.9 °F 39% 29.91 in 10.0 mi WSW 8.1 mph - N/A   Clear
1:53 PM 55.9 °F - 37.0 °F 49% 29.89 in 10.0 mi WSW 9.2 mph 18.4 mph N/A   Scattered Clouds
2:53 PM 55.9 °F - 37.0 °F 49% 29.90 in 10.0 mi SW 12.7 mph 18.4 mph N/A   Partly Cloudy
3:53 PM 57.9 °F - 30.0 °F 35% 29.91 in 10.0 mi NW 9.2 mph - N/A   Overcast
4:53 PM 57.0 °F - 28.9 °F 34% 29.92 in 10.0 mi NNW 6.9 mph - N/A   Mostly Cloudy
5:53 PM 53.1 °F - 28.9 °F 40% 29.96 in 10.0 mi WNW 3.5 mph - N/A   Scattered Clouds
6:53 PM 51.1 °F - 28.0 °F 41% 30.00 in 10.0 mi NW 3.5 mph - N/A   Clear
7:53 PM 46.9 °F - 28.9 °F 50% 30.03 in 10.0 mi Calm Calm - N/A   Partly Cloudy
8:53 PM 41.0 °F - 30.0 °F 65% 30.04 in 10.0 mi Calm Calm - N/A   Clear
9:53 PM 37.0 °F - 30.0 °F 76% 30.07 in 10.0 mi Calm Calm - N/A   Clear
10:53 PM 35.1 °F - 30.0 °F 82% 30.10 in 10.0 mi Calm Calm - N/A   Clear
11:53 PM 34.0 °F - 30.0 °F 85% 30.11 in 10.0 mi Calm Calm - N/A   Clear